QPF
0.01 0.01 0.01 0.01 0.00 0.01 0.01 0.01 0.01 0.02 0.02 0.01 0.01 0.01 0.01 0.01 0.01 0.01 0.01 0.00 0.00 0.00 0.01 0.01 0.01 0.01 0.01 0.01 0.01 0.02 0.03 0.04 0.02 0.02 0.01 0.01 0.01 0.01 0.01 0.02 0.02 0.02 0.02
0.01 0.01 0.01 0.00 0.00 0.00 0.01 0.01 0.01 0.01 0.01 0.01 0.00 0.01 0.01 0.01 0.01 0.01 0.01 0.00 0.01 0.01 0.01 0.01 0.01 0.01 0.01 0.01 0.01 0.02 0.03 0.03 0.03 0.02 0.02 0.02 0.02 0.02 0.02 0.02 0.02 0.02 0.02
0.01 0.01 0.01 0.01 0.00 0.00 0.00 0.00 0.00 0.00 0.01 0.01 0.01 0.01 0.01 0.01 0.01 0.01 0.00 0.00 0.00 0.00 0.01 0.02 0.02 0.01 0.02 0.01 0.01 0.02 0.03 0.03 0.02 0.03 0.03 0.02 0.02 0.02 0.02 0.02 0.02 0.02 0.02
0.01 0.01 0.01 0.01 0.00 0.00 0.00 0.00 0.00 0.00 0.01 0.02 0.01 0.01 0.01 0.01 0.01 0.00 0.00 0.01 0.01 0.01 0.01 0.01 0.01 0.01 0.01 0.01 0.01 0.02 0.03 0.02 0.02 0.02 0.03 0.03 0.03 0.03 0.02 0.02 0.03 0.02 0.02
0.01 0.01 0.01 0.01 0.00 0.00 0.00 0.00 0.00 0.00 0.01 0.02 0.01 0.01 0.01 0.01 0.01 0.01 0.01 0.01 0.02 0.01 0.01 0.01 0.01 0.01 0.01 0.01 0.01 0.02 0.02 0.02 0.03 0.02 0.03 0.03 0.03 0.03 0.03 0.03 0.03 0.02 0.02
0.01 0.01 0.01 0.01 0.00 0.00 0.00 0.01 0.01 0.01 0.01 0.02 0.01 0.01 0.01 0.01 0.01 0.01 0.01 0.01 0.02 0.03 0.01 0.01 0.01 0.01 0.01 0.01 0.01 0.01 0.01 0.02 0.03 0.04 0.04 0.04 0.04 0.03 0.02 0.02 0.02 0.02 0.01
0.01 0.01 0.01 0.01 0.00 0.00 0.01 0.01 0.01 0.02 0.02 0.03 0.03 0.02 0.01 0.01 0.01 0.01 0.01 0.01 0.02 0.01 0.01 0.01 0.00 0.00 0.01 0.01 0.01 0.01 0.01 0.02 0.03 0.04 0.04 0.04 0.03 0.03 0.02 0.02 0.02 0.01 0.01
0.01 0.01 0.01 0.01 0.01 0.01 0.01 0.01 0.02 0.02 0.03 0.03 0.03 0.03 0.01 0.01 0.00 0.01 0.01 0.01 0.01 0.01 0.01 0.00 0.00 0.00 0.00 0.00 0.01 0.01 0.01 0.01 0.02 0.01 0.02 0.02 0.01 0.01 0.01 0.01 0.02 0.02 0.01
0.01 0.01 0.01 0.01 0.01 0.01 0.01 0.02 0.02 0.01 0.02 0.03 0.03 0.02 0.01 0.01 0.01 0.01 0.02 0.02 0.02 0.03 0.02 0.01 0.01 0.00 0.00 0.00 0.01 0.01 0.01 0.01 0.01 0.02 0.02 0.01 0.01 0.01 0.02 0.02 0.02 0.01 0.02
0.02 0.01 0.01 0.01 0.01 0.01 0.01 0.01 0.02 0.01 0.01 0.02 0.03 0.02 0.01 0.01 0.01 0.01 0.04 0.03 0.03 0.04 0.03 0.02 0.01 0.01 0.00 0.01 0.01 0.01 0.01 0.01 0.01 0.02 0.02 0.02 0.02 0.02 0.02 0.02 0.02 0.01 0.01
0.01 0.01 0.01 0.01 0.01 0.01 0.01 0.01 0.01 0.01 0.01 0.01 0.01 0.01 0.01 0.01 0.01 0.01 0.04 0.05 0.03 0.04 0.04 0.03 0.02 0.02 0.01 0.01 0.02 0.02 0.02 0.02 0.01 0.02 0.02 0.02 0.03 0.04 0.03 0.02 0.02 0.01 0.01
0.01 0.01 0.02 0.01 0.01 0.01 0.01 0.01 0.01 0.01 0.01 0.02 0.01 0.00 0.01 0.01 0.02 0.02 0.03 0.04 0.03 0.03 0.05 0.05 0.04 0.03 0.02 0.02 0.03 0.03 0.03 0.03 0.02 0.03 0.03 0.03 0.03 0.04 0.04 0.02 0.02 0.02 0.01
0.02 0.02 0.02 0.02 0.01 0.01 0.01 0.01 0.01 0.01 0.01 0.01 0.01 0.01 0.01 0.01 0.01 0.02 0.02 0.03 0.03 0.04 0.04 0.04 0.04 0.04 0.03 0.04 0.04 0.05 0.04 0.03 0.03 0.02 0.02 0.02 0.02 0.02 0.03 0.02 0.01 0.01 0.01
0.05 0.05 0.03 0.02 0.01 0.01 0.01 0.00 0.00 0.00 0.01 0.01 0.01 0.01 0.00 0.00 0.00 0.00 0.01 0.01 0.03 0.03 0.03 0.03 0.03 0.03 0.04 0.05 0.05 0.05 0.04 0.03 0.03 0.02 0.01 0.01 0.01 0.01 0.01 0.01 0.01 0.00 0.00
0.04 0.03 0.02 0.01 0.00 0.00 0.00 0.00 0.00 0.00 0.00 0.00 0.00 0.00 0.00 0.00 0.00 0.00 0.00 0.01 0.01 0.02 0.02 0.02 0.02 0.02 0.03 0.03 0.03 0.03 0.02 0.02 0.02 0.01 0.00 0.00 0.00 0.00 0.00 0.00 0.00 0.00 0.00
0.01 0.01 0.01 0.01 0.00 0.00 0.00 0.00 0.00 0.00 0.00 0.00 0.00 0.01 0.01 0.01 0.00 0.00 0.00 0.00 0.00 0.00 0.01 0.01 0.01 0.01 0.01 0.01 0.02 0.02 0.01 0.01 0.01 0.00 0.00 0.00 0.00 0.00 0.00 0.00 0.00 0.00 0.00
0.00 0.00 0.01 0.01 0.01 0.00 0.00 0.00 0.00 0.00 0.00 0.00 0.00 0.00 0.01 0.01 0.01 0.00 0.00 0.00 0.00 0.00 0.00 0.00 0.00 0.00 0.00 0.01 0.01 0.01 0.01 0.00 0.00 0.00 0.00 0.00 0.00 0.00 0.00 0.00 0.00 0.00 0.00
0.00 0.00 0.00 0.01 0.00 0.00 0.00 0.00 0.00 0.00 0.00 0.00 0.00 0.00 0.00 0.00 0.00 0.00 0.00 0.00 0.00 0.00 0.00 0.00 0.00 0.00 0.00 0.00 0.00 0.00 0.00 0.00 0.00 0.00 0.00 0.00 0.00 0.00 0.00 0.00 0.00 0.00 0.00
0.00 0.00 0.00 0.00 0.00 0.00 0.00 0.00 0.00 0.00 0.00 0.00 0.00 0.00 0.00 0.00 0.00 0.00 0.00 0.00 0.00 0.00 0.00 0.00 0.00 0.00 0.00 0.00 0.00 0.00 0.00 0.00 0.00 0.00 0.00 0.00 0.00 0.00 0.00 0.00 0.00 0.00 0.00
0.00 0.00 0.00 0.00 0.00 0.00 0.00 0.00 0.00 0.00 0.00 0.00 0.00 0.00 0.00 0.00 0.00 0.00 0.00 0.00 0.00 0.00 0.00 0.00 0.00 0.00 0.00 0.00 0.00 0.00 0.00 0.00 0.00 0.00 0.00 0.00 0.00 0.00 0.00 0.00 0.00 0.00 0.00
0.00 0.00 0.00 0.00 0.00 0.00 0.00 0.00 0.00 0.00 0.00 0.00 0.00 0.00 0.00 0.00 0.00 0.00 0.00 0.00 0.00 0.00 0.00 0.00 0.00 0.00 0.00 0.00 0.00 0.00 0.00 0.00 0.00 0.00 0.00 0.00 0.00 0.00 0.00 0.00 0.00 0.00 0.00
0.00 0.00 0.00 0.00 0.00 0.00 0.00 0.00 0.00 0.00 0.00 0.00 0.00 0.00 0.00 0.00 0.00 0.00 0.00 0.00 0.00 0.00 0.00 0.00 0.00 0.00 0.00 0.00 0.00 0.00 0.00 0.00 0.00 0.00 0.00 0.00 0.00 0.00 0.00 0.00 0.00 0.00 0.00
0.00 0.00 0.00 0.00 0.00 0.00 0.00 0.00 0.00 0.00 0.00 0.00 0.00 0.00 0.00 0.00 0.00 0.00 0.00 0.00 0.00 0.00 0.00 0.00 0.00 0.00 0.00 0.00 0.00 0.00 0.00 0.00 0.00 0.00 0.00 0.00 0.00 0.00 0.00 0.00 0.00 0.00 0.00
0.00 0.00 0.00 0.00 0.00 0.00 0.00 0.00 0.00 0.00 0.00 0.00 0.00 0.00 0.00 0.00 0.00 0.00 0.00 0.00 0.00 0.00 0.00 0.00 0.00 0.00 0.00 0.00 0.00 0.00 0.00 0.00 0.00 0.00 0.00 0.00 0.00 0.00 0.00 0.00 0.00 0.00 0.00
0.00 0.00 0.00 0.00 0.00 0.00 0.00 0.00 0.00 0.00 0.00 0.00 0.00 0.00 0.00 0.00 0.00 0.00 0.00 0.00 0.00 0.00 0.00 0.00 0.00 0.00 0.00 0.00 0.00 0.00 0.00 0.00 0.00 0.00 0.00 0.00 0.00 0.00 0.00 0.00 0.00 0.00 0.00
0.00 0.00 0.00 0.00 0.00 0.00 0.00 0.00 0.00 0.00 0.00 0.00 0.00 0.00 0.00 0.00 0.00 0.00 0.00 0.01 0.01 0.01 0.01 0.01 0.01 0.01 0.00 0.00 0.00 0.00 0.00 0.00 0.00 0.00 0.00 0.00 0.00 0.00 0.00 0.00 0.00 0.00 0.00
MSLP
1019.08 1019.08 1019.09 1019.10 1019.10 1019.10 1019.08 1019.05 1018.99 1018.93 1018.86 1018.79 1018.71 1018.61 1018.49 1018.35 1018.18 1017.99 1017.79 1017.60 1017.45 1017.34 1017.28 1017.29 1017.35 1017.45 1017.57 1017.69 1017.78 1017.83 1017.84 1017.81 1017.74 1017.67 1017.60 1017.58 1017.62 1017.76 1017.98 1018.32 1018.76 1019.28 1019.87
1019.07 1019.04 1019.03 1019.04 1019.07 1019.11 1019.14 1019.16 1019.16 1019.14 1019.10 1019.04 1018.96 1018.85 1018.72 1018.57 1018.39 1018.20 1018.01 1017.83 1017.67 1017.55 1017.48 1017.45 1017.47 1017.52 1017.60 1017.67 1017.74 1017.78 1017.80 1017.79 1017.76 1017.73 1017.71 1017.73 1017.80 1017.96 1018.20 1018.54 1018.98 1019.50 1020.09
1019.06 1019.02 1019.02 1019.04 1019.10 1019.17 1019.25 1019.31 1019.36 1019.38 1019.36 1019.31 1019.23 1019.11 1018.96 1018.79 1018.61 1018.41 1018.22 1018.04 1017.87 1017.74 1017.64 1017.57 1017.53 1017.51 1017.52 1017.53 1017.55 1017.57 1017.58 1017.58 1017.59 1017.61 1017.65 1017.73 1017.88 1018.09 1018.38 1018.75 1019.21 1019.74 1020.32
1019.08 1019.06 1019.06 1019.11 1019.20 1019.31 1019.42 1019.53 1019.61 1019.65 1019.65 1019.60 1019.51 1019.38 1019.21 1019.02 1018.82 1018.61 1018.41 1018.22 1018.04 1017.87 1017.73 1017.60 1017.48 1017.38 1017.30 1017.23 1017.18 1017.15 1017.14 1017.15 1017.19 1017.27 1017.39 1017.57 1017.80 1018.10 1018.47 1018.90 1019.40 1019.96 1020.54
1019.16 1019.16 1019.19 1019.27 1019.38 1019.52 1019.66 1019.80 1019.90 1019.96 1019.96 1019.91 1019.80 1019.65 1019.46 1019.25 1019.03 1018.80 1018.58 1018.36 1018.15 1017.94 1017.74 1017.53 1017.33 1017.13 1016.94 1016.77 1016.63 1016.54 1016.49 1016.51 1016.58 1016.73 1016.94 1017.23 1017.58 1017.99 1018.46 1018.99 1019.55 1020.14 1020.74
1019.29 1019.32 1019.38 1019.48 1019.62 1019.78 1019.94 1020.09 1020.20 1020.26 1020.26 1020.20 1020.08 1019.91 1019.70 1019.47 1019.22 1018.97 1018.73 1018.48 1018.23 1017.96 1017.69 1017.40 1017.09 1016.78 1016.48 1016.20 1015.97 1015.81 1015.72 1015.73 1015.84 1016.06 1016.37 1016.77 1017.25 1017.79 1018.38 1019.01 1019.65 1020.28 1020.90
1019.47 1019.54 1019.63 1019.75 1019.90 1020.06 1020.22 1020.37 1020.48 1020.53 1020.53 1020.46 1020.33 1020.14 1019.92 1019.67 1019.41 1019.14 1018.87 1018.58 1018.29 1017.97 1017.62 1017.24 1016.84 1016.42 1016.01 1015.63 1015.31 1015.07 1014.95 1014.96 1015.10 1015.37 1015.78 1016.29 1016.90 1017.56 1018.27 1018.99 1019.70 1020.38 1021.01
1019.70 1019.79 1019.91 1020.04 1020.18 1020.34 1020.49 1020.62 1020.72 1020.76 1020.75 1020.68 1020.54 1020.35 1020.13 1019.87 1019.60 1019.32 1019.02 1018.71 1018.37 1018.00 1017.59 1017.13 1016.64 1016.13 1015.63 1015.16 1014.77 1014.48 1014.33 1014.34 1014.50 1014.83 1015.31 1015.92 1016.62 1017.39 1018.19 1018.98 1019.74 1020.44 1021.07
1019.97 1020.09 1020.21 1020.34 1020.47 1020.60 1020.73 1020.84 1020.91 1020.95 1020.93 1020.86 1020.72 1020.54 1020.33 1020.08 1019.81 1019.52 1019.22 1018.89 1018.52 1018.11 1017.65 1017.13 1016.58 1016.01 1015.44 1014.92 1014.49 1014.17 1014.00 1014.01 1014.20 1014.56 1015.09 1015.76 1016.52 1017.34 1018.18 1019.01 1019.78 1020.48 1021.07
1020.28 1020.41 1020.53 1020.64 1020.75 1020.86 1020.95 1021.03 1021.08 1021.10 1021.07 1021.01 1020.89 1020.73 1020.53 1020.30 1020.05 1019.77 1019.47 1019.13 1018.75 1018.32 1017.83 1017.29 1016.71 1016.11 1015.51 1014.97 1014.52 1014.20 1014.04 1014.05 1014.26 1014.64 1015.19 1015.87 1016.64 1017.46 1018.29 1019.09 1019.83 1020.48 1021.02
1020.63 1020.77 1020.88 1020.97 1021.04 1021.11 1021.16 1021.20 1021.23 1021.23 1021.21 1021.15 1021.05 1020.91 1020.75 1020.55 1020.32 1020.07 1019.78 1019.45 1019.07 1018.63 1018.14 1017.60 1017.02 1016.42 1015.84 1015.32 1014.89 1014.59 1014.44 1014.47 1014.68 1015.06 1015.59 1016.25 1016.97 1017.74 1018.50 1019.23 1019.89 1020.46 1020.92
1021.03 1021.15 1021.24 1021.30 1021.34 1021.36 1021.38 1021.39 1021.39 1021.37 1021.34 1021.29 1021.21 1021.10 1020.96 1020.80 1020.60 1020.38 1020.11 1019.80 1019.43 1019.01 1018.53 1018.01 1017.46 1016.90 1016.37 1015.89 1015.51 1015.25 1015.14 1015.19 1015.40 1015.76 1016.25 1016.83 1017.48 1018.14 1018.79 1019.40 1019.94 1020.40 1020.77
1021.44 1021.55 1021.61 1021.64 1021.65 1021.63 1021.60 1021.58 1021.55 1021.51 1021.47 1021.42 1021.36 1021.27 1021.17 1021.04 1020.87 1020.67 1020.43 1020.14 1019.79 1019.39 1018.95 1018.46 1017.96 1017.46 1016.98 1016.57 1016.26 1016.06 1015.99 1016.07 1016.27 1016.60 1017.03 1017.53 1018.06 1018.59 1019.10 1019.57 1019.97 1020.31 1020.57
1021.83 1021.92 1021.97 1021.97 1021.94 1021.89 1021.83 1021.76 1021.70 1021.65 1021.59 1021.54 1021.48 1021.41 1021.33 1021.22 1021.08 1020.90 1020.68 1020.41 1020.09 1019.72 1019.30 1018.86 1018.41 1017.97 1017.58 1017.24 1017.00 1016.87 1016.85 1016.95 1017.15 1017.44 1017.80 1018.20 1018.61 1019.01 1019.37 1019.69 1019.96 1020.18 1020.34
1022.16 1022.24 1022.27 1022.25 1022.19 1022.11 1022.02 1021.92 1021.83 1021.75 1021.67 1021.61 1021.55 1021.48 1021.41 1021.31 1021.19 1021.03 1020.82 1020.57 1020.27 1019.92 1019.54 1019.14 1018.74 1018.36 1018.04 1017.78 1017.61 1017.54 1017.57 1017.69 1017.89 1018.15 1018.45 1018.76 1019.06 1019.33 1019.56 1019.76 1019.91 1020.02 1020.10
1022.38 1022.45 1022.47 1022.44 1022.37 1022.27 1022.15 1022.02 1021.90 1021.79 1021.69 1021.60 1021.52 1021.45 1021.38 1021.29 1021.17 1021.02 1020.83 1020.58 1020.29 1019.97 1019.61 1019.25 1018.90 1018.58 1018.31 1018.12 1018.01 1018.00 1018.07 1018.21 1018.41 1018.64 1018.89 1019.12 1019.33 1019.51 1019.65 1019.74 1019.81 1019.85 1019.88
1022.47 1022.54 1022.55 1022.52 1022.44 1022.33 1022.19 1022.04 1021.88 1021.74 1021.61 1021.50 1021.40 1021.32 1021.23 1021.14 1021.03 1020.88 1020.69 1020.46 1020.18 1019.87 1019.54 1019.21 1018.89 1018.62 1018.40 1018.26 1018.21 1018.23 1018.33 1018.49 1018.69 1018.90 1019.11 1019.30 1019.45 1019.57 1019.64 1019.68 1019.69 1019.70 1019.69
1022.43 1022.49 1022.51 1022.48 1022.41 1022.28 1022.13 1021.96 1021.78 1021.60 1021.44 1021.30 1021.18 1021.08 1020.98 1020.88 1020.77 1020.63 1020.45 1020.23 1019.97 1019.68 1019.37 1019.07 1018.78 1018.54 1018.36 1018.26 1018.24 1018.29 1018.41 1018.58 1018.78 1018.98 1019.17 1019.33 1019.45 1019.53 1019.58 1019.59 1019.59 1019.57 1019.56
1022.27 1022.34 1022.37 1022.35 1022.27 1022.15 1021.99 1021.79 1021.59 1021.38 1021.19 1021.02 1020.88 1020.75 1020.65 1020.55 1020.44 1020.30 1020.14 1019.94 1019.70 1019.44 1019.16 1018.88 1018.63 1018.42 1018.27 1018.20 1018.20 1018.27 1018.40 1018.57 1018.77 1018.96 1019.14 1019.28 1019.39 1019.46 1019.50 1019.51 1019.51 1019.50 1019.49
1022.04 1022.12 1022.16 1022.15 1022.07 1021.95 1021.77 1021.56 1021.33 1021.10 1020.88 1020.69 1020.52 1020.39 1020.27 1020.17 1020.07 1019.95 1019.81 1019.64 1019.43 1019.20 1018.96 1018.72 1018.50 1018.32 1018.20 1018.15 1018.17 1018.25 1018.38 1018.55 1018.74 1018.93 1019.09 1019.23 1019.34 1019.41 1019.45 1019.47 1019.48 1019.48 1019.48
1021.79 1021.88 1021.92 1021.91 1021.84 1021.71 1021.52 1021.30 1021.05 1020.79 1020.55 1020.33 1020.15 1020.00 1019.89 1019.79 1019.70 1019.61 1019.49 1019.36 1019.19 1019.00 1018.80 1018.60 1018.43 1018.29 1018.20 1018.17 1018.20 1018.29 1018.42 1018.59 1018.76 1018.94 1019.10 1019.23 1019.33 1019.40 1019.45 1019.48 1019.50 1019.50 1019.50
1021.56 1021.65 1021.69 1021.68 1021.60 1021.46 1021.26 1021.02 1020.75 1020.48 1020.22 1019.99 1019.79 1019.64 1019.52 1019.43 1019.36 1019.29 1019.21 1019.10 1018.98 1018.84 1018.69 1018.54 1018.41 1018.31 1018.25 1018.25 1018.30 1018.40 1018.53 1018.69 1018.85 1019.01 1019.16 1019.28 1019.37 1019.44 1019.49 1019.52 1019.54 1019.54 1019.54
1021.37 1021.45 1021.49 1021.46 1021.37 1021.22 1021.01 1020.75 1020.47 1020.19 1019.91 1019.67 1019.46 1019.31 1019.19 1019.11 1019.04 1018.99 1018.94 1018.87 1018.79 1018.69 1018.59 1018.49 1018.41 1018.35 1018.33 1018.36 1018.43 1018.54 1018.67 1018.83 1018.98 1019.13 1019.26 1019.37 1019.45 1019.50 1019.54 1019.56 1019.57 1019.56 1019.54
1021.20 1021.27 1021.29 1021.25 1021.15 1020.98 1020.76 1020.49 1020.20 1019.91 1019.63 1019.37 1019.17 1019.00 1018.88 1018.80 1018.75 1018.71 1018.67 1018.63 1018.58 1018.52 1018.46 1018.40 1018.37 1018.35 1018.38 1018.43 1018.53 1018.65 1018.79 1018.95 1019.09 1019.23 1019.35 1019.43 1019.50 1019.53 1019.55 1019.56 1019.55 1019.52 1019.48
1021.00 1021.06 1021.07 1021.02 1020.90 1020.72 1020.49 1020.22 1019.92 1019.63 1019.35 1019.10 1018.89 1018.72 1018.60 1018.51 1018.45 1018.41 1018.38 1018.35 1018.32 1018.28 1018.25 1018.23 1018.23 1018.25 1018.31 1018.40 1018.52 1018.66 1018.82 1018.98 1019.12 1019.25 1019.35 1019.43 1019.47 1019.49 1019.49 1019.47 1019.44 1019.40 1019.34
1020.72 1020.77 1020.77 1020.71 1020.59 1020.40 1020.17 1019.90 1019.61 1019.33 1019.05 1018.80 1018.60 1018.43 1018.30 1018.21 1018.14 1018.09 1018.05 1018.02 1017.99 1017.96 1017.94 1017.94 1017.97 1018.02 1018.10 1018.22 1018.37 1018.53 1018.70 1018.87 1019.02 1019.14 1019.24 1019.30 1019.33 1019.33 1019.31 1019.28 1019.23 1019.16 1019.09
Thickness
5619 5616 5613 5611 5609 5608 5606 5604 5603 5602 5602 5601 5600 5601 5600 5600 5601 5601 5601 5602 5603 5603 5604 5604 5605 5606 5607 5608 5608 5608 5608 5607 5603 5600 5600 5601 5601 5600 5600 5600 5600 5600 5600
5611 5608 5604 5602 5600 5598 5597 5595 5595 5594 5593 5593 5593 5592 5592 5592 5592 5592 5593 5593 5594 5594 5594 5595 5596 5598 5598 5599 5600 5600 5600 5600 5598 5595 5593 5593 5593 5593 5593 5593 5593 5593 5593
5602 5598 5595 5592 5590 5589 5587 5586 5586 5586 5585 5585 5585 5584 5584 5584 5584 5584 5585 5585 5585 5586 5586 5587 5587 5589 5589 5590 5591 5592 5593 5594 5592 5590 5587 5587 5587 5587 5586 5586 5587 5587 5587
5593 5589 5586 5583 5582 5580 5579 5578 5578 5578 5577 5577 5576 5576 5576 5576 5576 5577 5576 5576 5577 5577 5578 5579 5580 5581 5581 5582 5584 5585 5586 5586 5585 5584 5582 5581 5580 5580 5580 5579 5579 5580 5581
5585 5581 5578 5576 5574 5573 5571 5571 5571 5570 5570 5569 5569 5568 5568 5568 5568 5568 5569 5569 5569 5570 5571 5572 5573 5574 5575 5576 5578 5578 5579 5579 5578 5576 5575 5574 5574 5574 5574 5574 5573 5573 5574
5578 5575 5572 5570 5568 5566 5564 5564 5563 5562 5562 5561 5561 5560 5560 5561 5561 5562 5563 5562 5562 5562 5563 5565 5566 5567 5569 5570 5571 5572 5573 5573 5572 5571 5570 5569 5569 5570 5569 5570 5568 5568 5568
5572 5569 5567 5564 5562 5560 5559 5557 5556 5555 5554 5554 5554 5553 5553 5554 5556 5557 5557 5557 5556 5556 5557 5558 5560 5561 5562 5564 5565 5566 5567 5568 5568 5567 5566 5566 5566 5567 5566 5566 5565 5564 5565
5568 5565 5562 5560 5557 5555 5554 5552 5551 5549 5548 5548 5548 5548 5548 5549 5551 5552 5552 5552 5551 5551 5552 5553 5554 5555 5557 5558 5559 5560 5561 5562 5564 5564 5564 5564 5565 5565 5565 5564 5564 5563 5564
5564 5561 5559 5556 5553 5551 5549 5547 5546 5545 5544 5544 5544 5544 5544 5544 5546 5548 5548 5547 5546 5547 5548 5549 5550 5551 5553 5554 5555 5555 5556 5558 5560 5561 5561 5562 5563 5563 5563 5562 5561 5560 5560
5561 5559 5556 5554 5551 5548 5546 5545 5544 5543 5542 5542 5541 5541 5541 5541 5543 5545 5546 5544 5543 5543 5544 5546 5547 5548 5550 5551 5551 5551 5552 5553 5555 5557 5558 5559 5560 5561 5562 5562 5561 5559 5558
5560 5557 5554 5552 5549 5547 5545 5543 5542 5540 5539 5538 5538 5539 5539 5540 5541 5543 5543 5542 5542 5542 5542 5543 5545 5547 5548 5549 5549 5549 5550 5551 5552 5553 5554 5555 5557 5559 5560 5561 5562 5561 5560
5558 5555 5552 5549 5548 5546 5543 5542 5540 5539 5537 5536 5536 5537 5538 5539 5541 5542 5543 5543 5542 5542 5542 5543 5545 5547 5548 5549 5550 5551 5551 5551 5551 5551 5552 5553 5555 5558 5560 5562 5563 5563 5564
5556 5553 5550 5548 5546 5544 5542 5540 5539 5537 5536 5536 5535 5535 5537 5539 5540 5541 5542 5542 5543 5542 5543 5544 5546 5548 5549 5550 5551 5552 5552 5551 5551 5551 5551 5553 5555 5558 5560 5562 5563 5564 5565
5555 5552 5549 5547 5544 5543 5541 5540 5539 5537 5536 5536 5536 5536 5537 5538 5540 5541 5541 5542 5543 5543 5544 5545 5548 5549 5550 5551 5552 5553 5553 5553 5552 5552 5553 5554 5556 5558 5559 5561 5561 5562 5563
5556 5553 5549 5547 5544 5542 5541 5540 5540 5540 5540 5539 5539 5539 5538 5539 5542 5543 5542 5542 5543 5543 5544 5546 5547 5548 5549 5551 5552 5554 5555 5555 5554 5555 5555 5556 5557 5559 5560 5561 5561 5561 5561
5557 5554 5550 5547 5545 5543 5541 5541 5542 5543 5544 5544 5545 5544 5544 5545 5546 5546 5546 5546 5546 5546 5545 5546 5547 5548 5550 5551 5552 5555 5557 5557 5558 5558 5558 5558 5559 5559 5561 5562 5562 5561 5561
5559 5556 5553 5550 5548 5546 5544 5543 5543 5545 5547 5547 5548 5548 5548 5549 5549 5548 5548 5548 5549 5548 5547 5548 5549 5551 5553 5555 5556 5557 5559 5561 5562 5561 5562 5562 5562 5562 5562 5562 5563 5563 5563
5563 5561 5557 5554 5552 5551 5549 5548 5547 5546 5547 5548 5551 5551 5552 5552 5552 5551 5550 5550 5551 5552 5551 5552 5554 5556 5557 5559 5561 5562 5563 5564 5565 5565 5565 5565 5565 5564 5564 5564 5564 5564 5564
5567 5564 5561 5559 5557 5555 5554 5553 5552 5552 5551 5551 5552 5554 5556 5555 5555 5554 5554 5552 5553 5555 5556 5557 5559 5561 5563 5564 5566 5567 5568 5568 5569 5568 5568 5569 5568 5567 5567 5567 5566 5567 5566
5571 5569 5566 5563 5561 5560 5558 5557 5557 5556 5556 5556 5556 5558 5558 5557 5556 5557 5557 5557 5558 5560 5561 5563 5565 5567 5568 5570 5571 5571 5572 5572 5572 5572 5572 5572 5571 5570 5569 5569 5569 5568 5567
5575 5572 5571 5568 5566 5565 5564 5563 5562 5562 5561 5561 5563 5565 5565 5562 5563 5564 5564 5565 5565 5567 5568 5570 5571 5573 5574 5575 5575 5575 5576 5575 5576 5576 5575 5575 5574 5573 5573 5572 5571 5570 5569
5579 5576 5574 5572 5570 5570 5569 5568 5568 5567 5567 5568 5569 5571 5570 5568 5569 5570 5571 5573 5574 5575 5576 5576 5577 5578 5579 5579 5579 5579 5579 5579 5579 5579 5578 5577 5577 5576 5574 5573 5572 5570 5569
5583 5581 5579 5577 5576 5575 5574 5573 5573 5572 5572 5573 5574 5575 5575 5574 5574 5575 5577 5578 5580 5581 5582 5581 5581 5582 5583 5584 5584 5583 5582 5582 5582 5582 5580 5579 5578 5577 5575 5573 5572 5571 5569
5587 5585 5583 5581 5580 5579 5578 5578 5578 5578 5578 5579 5579 5579 5580 5580 5580 5582 5583 5584 5585 5585 5586 5586 5586 5587 5587 5587 5587 5587 5586 5586 5585 5584 5583 5581 5579 5577 5575 5573 5572 5571 5569
5591 5589 5587 5585 5584 5584 5583 5583 5583 5583 5584 5584 5584 5584 5585 5585 5586 5587 5588 5588 5589 5589 5590 5590 5590 5590 5590 5589 5589 5588 5588 5587 5586 5584 5582 5580 5579 5577 5575 5573 5572 5570 5568
5595 5593 5592 5590 5589 5588 5588 5588 5588 5588 5588 5588 5589 5589 5589 5589 5590 5591 5591 5591 5591 5592 5592 5592 5592 5592 5592 5591 5590 5590 5588 5587 5585 5583 5581 5578 5577 5575 5573 5571 5570 5568 5567